| time (UTC) | temp C | wind direction | speed KPH | gust KPH | rain 1hr cm | rain 24hr cm | rain mn cm | humidity % | barometer mb |
| 20260906131332 | 32 | 329 | 4.8 | 14.5 | 0.00 | 0.00 | 0.00 | 53 | 1014.8 |
| 20260906125332 | 33 | 287 | 4.8 | 19.3 | 0.00 | 0.00 | 0.00 | 53 | 1014.9 |
| 20260906124332 | 33 | 311 | 8.0 | 19.3 | 0.00 | 0.00 | 0.00 | 52 | 1015.0 |
| 20260906123332 | 33 | 306 | 6.4 | 19.3 | 0.00 | 0.00 | 0.00 | 52 | 1014.9 |
| 20260906121333 | 33 | 261 | 8.0 | 19.3 | 0.00 | 0.00 | 0.00 | 53 | 1014.9 |
| 20260906120332 | 33 | 314 | 9.7 | 19.3 | 0.00 | 0.00 | 0.00 | 53 | 1014.9 |
| 20260906115332 | 32 | 296 | 6.4 | 19.3 | 0.00 | 0.00 | 0.00 | 55 | 1014.8 |
| 20260906114333 | 32 | 335 | 8.0 | 14.5 | 0.00 | 0.00 | 0.00 | 55 | 1015.0 |
| 20260906113332 | 32 | 326 | 9.7 | 20.9 | 0.00 | 0.00 | 0.00 | 56 | 1014.9 |
| 20260906112332 | 31 | 297 | 9.7 | 20.9 | 0.00 | 0.00 | 0.00 | 57 | 1015.1 |
| 20260906111332 | 31 | 285 | 9.7 | 20.9 | 0.00 | 0.00 | 0.00 | 57 | 1015.1 |
| 20260906110332 | 31 | 291 | 6.4 | 22.5 | 0.00 | 0.00 | 0.00 | 59 | 1015.2 |
| 20260906105332 | 31 | 301 | 9.7 | 20.9 | 0.00 | 0.00 | 0.00 | 58 | 1015.3 |
| 20260906104332 | 31 | 296 | 9.7 | 22.5 | 0.00 | 0.00 | 0.00 | 59 | 1015.2 |
| 20260906103332 | 31 | 245 | 4.8 | 19.3 | 0.00 | 0.00 | 0.00 | 59 | 1015.1 |
| 20260906102332 | 31 | 301 | 11.3 | 22.5 | 0.00 | 0.00 | 0.00 | 58 | 1015.1 |
| 20260906101332 | 31 | 299 | 6.4 | 16.1 | 0.00 | 0.00 | 0.00 | 58 | 1015.1 |
| 20260906100332 | 31 | 315 | 9.7 | 22.5 | 0.00 | 0.00 | 0.00 | 57 | 1015.2 |
| 20260906095333 | 30 | 238 | 8.0 | 19.3 | 0.00 | 0.00 | 0.00 | 57 | 1015.1 |
| 20260906094332 | 30 | 312 | 6.4 | 20.9 | 0.00 | 0.00 | 0.00 | 57 | 1015.1 |
| 20260906093332 | 30 | 293 | 4.8 | 20.9 | 0.00 | 0.00 | 0.00 | 58 | 1015.2 |
| 20260906092332 | 30 | 277 | 8.0 | 22.5 | 0.00 | 0.00 | 0.00 | 58 | 1015.1 |
| 20260906091333 | 30 | 292 | 8.0 | 14.5 | 0.00 | 0.00 | 0.00 | 58 | 1015.0 |
| 20260906090332 | 30 | 297 | 4.8 | 19.3 | 0.00 | 0.00 | 0.00 | 57 | 1015.2 |
| 20260906085332 | 30 | 215 | 4.8 | 14.5 | 0.00 | 0.00 | 0.00 | 58 | 1015.1 |
| 20260906084332 | 30 | 214 | 4.8 | 12.9 | 0.00 | 0.00 | 0.00 | 58 | 1015.1 |
| 20260906083333 | 29 | 213 | 4.8 | 14.5 | 0.00 | 0.00 | 0.00 | 59 | 1015.3 |
| 20260906080332 | 28 | 251 | 4.8 | 14.5 | 0.00 | 0.00 | 0.00 | 61 | 1015.6 |
| 20260906075333 | 28 | 282 | 6.4 | 11.3 | 0.00 | 0.00 | 0.00 | 62 | 1015.8 |
| 20260906074332 | 28 | 198 | 6.4 | 14.5 | 0.00 | 0.00 | 0.00 | 63 | 1015.9 |
| 20260906072333 | 28 | 231 | 3.2 | 11.3 | 0.00 | 0.00 | 0.00 | 66 | 1016.0 |
| 20260906071332 | 28 | 256 | 6.4 | 19.3 | 0.00 | 0.00 | 0.00 | 66 | 1016.0 |
| 20260906065332 | 27 | 241 | 4.8 | 9.7 | 0.00 | 0.00 | 0.00 | 67 | 1015.9 |
| 20260906063332 | 27 | 167 | 1.6 | 4.8 | 0.00 | 0.00 | 0.00 | 71 | 1015.7 |
| 20260906062333 | 27 | 204 | 4.8 | 12.9 | 0.00 | 0.00 | 0.00 | 73 | 1015.7 |
| 20260906061332 | 26 | 190 | 3.2 | 16.1 | 0.00 | 0.00 | 0.00 | 74 | 1015.6 |
| 20260906054332 | 26 | 203 | 4.8 | 14.5 | 0.00 | 0.00 | 0.00 | 77 | 1015.5 |
| 20260906053332 | 25 | 138 | 1.6 | 12.9 | 0.00 | 0.00 | 0.00 | 77 | 1015.5 |
| 20260906052333 | 25 | 138 | 4.8 | 12.9 | 0.00 | 0.00 | 0.00 | 78 | 1015.5 |
| 20260906051332 | 25 | 148 | 4.8 | 12.9 | 0.00 | 0.00 | 0.00 | 78 | 1015.5 |
| 20260906045332 | 24 | 154 | 3.2 | 12.9 | 0.00 | 0.00 | 0.00 | 79 | 1015.3 |
| 20260906043332 | 23 | 163 | 1.6 | 8.0 | 0.00 | 0.00 | 0.00 | 79 | 1015.5 |
| 20260906042332 | 23 | 140 | 0.0 | 9.7 | 0.00 | 0.00 | 0.00 | 79 | 1015.6 |
| 20260906041332 | 23 | 206 | 0.0 | 4.8 | 0.00 | 0.00 | 0.00 | 79 | 1015.6 |
| 20260906040332 | 23 | 316 | 0.0 | 1.6 | 0.00 | 0.00 | 0.00 | 79 | 1015.4 |
| 20260906035332 | 23 | 316 | 0.0 | 1.6 | 0.00 | 0.00 | 0.00 | 79 | 1015.2 |
| 20260906034332 | 23 | 316 | 0.0 | 1.6 | 0.00 | 0.00 | 0.00 | 79 | 1015.1 |
| 20260906033332 | 23 | 316 | 0.0 | 1.6 | 0.00 | 0.00 | 0.00 | 79 | 1015.1 |
| 20260906032332 | 23 | 316 | 0.0 | 1.6 | 0.00 | 0.00 | 0.00 | 79 | 1015.1 |
| 20260906031332 | 23 | 316 | 0.0 | 1.6 | 0.00 | 0.00 | 0.00 | 79 | 1015.0 |
| 20260906030332 | 23 | 316 | 0.0 | 1.6 | 0.00 | 0.00 | 0.00 | 79 | 1015.0 |
| 20260906024332 | 23 | 316 | 0.0 | 3.2 | 0.00 | 0.00 | 0.00 | 78 | 1014.9 |
| 20260906023332 | 23 | 316 | 0.0 | 1.6 | 0.00 | 0.00 | 0.00 | 78 | 1014.9 |
| 20260906022332 | 23 | 316 | 0.0 | 1.6 | 0.00 | 0.00 | 0.00 | 78 | 1015.0 |
| 20260906015332 | 23 | 316 | 0.0 | 1.6 | 0.00 | 0.00 | 0.00 | 77 | 1014.8 |
| 20260906014332 | 23 | 316 | 0.0 | 1.6 | 0.00 | 0.00 | 0.00 | 77 | 1014.7 |
| 20260906013332 | 23 | 316 | 0.0 | 1.6 | 0.00 | 0.00 | 0.00 | 77 | 1014.5 |
| 20260906012332 | 24 | 316 | 0.0 | 1.6 | 0.00 | 0.00 | 0.00 | 77 | 1014.6 |
| 20260906011332 | 24 | 316 | 0.0 | 1.6 | 0.00 | 0.00 | 0.00 | 77 | 1014.5 |
| 20260906010332 | 24 | 316 | 0.0 | 1.6 | 0.00 | 0.00 | 0.00 | 77 | 1014.5 |
| 20260906004332 | 24 | 316 | 0.0 | 1.6 | 0.00 | 0.00 | 0.00 | 77 | 1014.6 |
| 20260906003332 | 24 | 316 | 0.0 | 1.6 | 0.00 | 0.00 | 0.00 | 76 | 1014.4 |
| 20260906002331 | 24 | 316 | 0.0 | 0.0 | 0.00 | 0.00 | 0.00 | 76 | 1014.4 |
| 20260906001332 | 24 | 316 | 0.0 | 0.0 | 0.00 | 0.00 | 0.00 | 76 | 1014.5 |
| 20260906000333 | 24 | 316 | 0.0 | 0.0 | 0.00 | 0.00 | 0.00 | 76 | 1014.5 |
| 20260905235332 | 24 | 316 | 0.0 | 1.6 | 0.00 | 0.00 | 0.00 | 75 | 1014.5 |
| 20260905234332 | 25 | 316 | 0.0 | 0.0 | 0.00 | 0.00 | 0.00 | 75 | 1014.5 |
| 20260905232332 | 25 | 316 | 0.0 | 1.6 | 0.00 | 0.00 | 0.00 | 75 | 1014.6 |
| 20260905231332 | 25 | 316 | 0.0 | 0.0 | 0.00 | 0.00 | 0.00 | 74 | 1014.7 |
| 20260905230332 | 25 | 316 | 0.0 | 1.6 | 0.00 | 0.00 | 0.00 | 74 | 1014.6 |
| 20260905225332 | 25 | 316 | 0.0 | 1.6 | 0.00 | 0.00 | 0.00 | 74 | 1014.7 |
| 20260905224332 | 25 | 316 | 0.0 | 1.6 | 0.00 | 0.00 | 0.00 | 74 | 1014.7 |
| 20260905223332 | 25 | 316 | 0.0 | 1.6 | 0.00 | 0.00 | 0.00 | 73 | 1014.8 |
| 20260905221332 | 26 | 316 | 0.0 | 1.6 | 0.00 | 0.00 | 0.00 | 73 | 1014.9 |
| 20260905220332 | 26 | 316 | 0.0 | 1.6 | 0.00 | 0.00 | 0.00 | 73 | 1014.9 |
| 20260905213331 | 26 | 316 | 0.0 | 0.0 | 0.00 | 0.00 | 0.00 | 71 | 1015.2 |
| 20260905212331 | 26 | 316 | 0.0 | 1.6 | 0.00 | 0.00 | 0.00 | 71 | 1015.2 |
| 20260905211331 | 26 | 316 | 0.0 | 0.0 | 0.00 | 0.00 | 0.00 | 71 | 1015.2 |
| 20260905210331 | 26 | 316 | 0.0 | 0.0 | 0.00 | 0.00 | 0.00 | 71 | 1015.3 |
| 20260905203332 | 26 | 316 | 0.0 | 0.0 | 0.00 | 0.00 | 0.00 | 70 | 1015.4 |
| 20260905202332 | 26 | 316 | 0.0 | 0.0 | 0.00 | 0.00 | 0.00 | 70 | 1015.3 |
| 20260905201331 | 26 | 316 | 0.0 | 1.6 | 0.00 | 0.00 | 0.00 | 70 | 1015.3 |
| 20260905200331 | 27 | 316 | 0.0 | 1.6 | 0.00 | 0.00 | 0.00 | 70 | 1015.4 |
| 20260905195331 | 27 | 316 | 0.0 | 1.6 | 0.00 | 0.00 | 0.00 | 69 | 1015.3 |
| 20260905194332 | 27 | 316 | 0.0 | 0.0 | 0.00 | 0.00 | 0.00 | 69 | 1015.4 |
| 20260905193331 | 27 | 316 | 0.0 | 0.0 | 0.00 | 0.00 | 0.00 | 68 | 1015.4 |
| 20260905192331 | 27 | 316 | 0.0 | 0.0 | 0.00 | 0.00 | 0.00 | 69 | 1015.5 |
| 20260905191331 | 27 | 316 | 0.0 | 0.0 | 0.00 | 0.00 | 0.00 | 68 | 1015.5 |
| 20260905190332 | 27 | 316 | 0.0 | 0.0 | 0.00 | 0.00 | 0.00 | 68 | 1015.5 |
| 20260905185332 | 27 | 316 | 0.0 | 0.0 | 0.00 | 0.00 | 0.00 | 67 | 1015.5 |
| 20260905184332 | 27 | 316 | 0.0 | 0.0 | 0.00 | 0.00 | 0.00 | 67 | 1015.4 |
| 20260905183332 | 27 | 316 | 0.0 | 0.0 | 0.00 | 0.00 | 0.00 | 66 | 1015.4 |
| 20260905182331 | 27 | 316 | 0.0 | 0.0 | 0.00 | 0.00 | 0.00 | 67 | 1015.6 |
| 20260905181331 | 27 | 316 | 0.0 | 1.6 | 0.00 | 0.00 | 0.00 | 66 | 1015.5 |
| 20260905180331 | 27 | 316 | 0.0 | 0.0 | 0.00 | 0.00 | 0.00 | 66 | 1015.6 |
| 20260905175331 | 28 | 316 | 0.0 | 0.0 | 0.00 | 0.00 | 0.00 | 66 | 1015.4 |
| 20260905174332 | 28 | 316 | 0.0 | 1.6 | 0.00 | 0.00 | 0.00 | 66 | 1015.4 |
| 20260905173332 | 28 | 316 | 0.0 | 1.6 | 0.00 | 0.00 | 0.00 | 66 | 1015.4 |
| 20260905172332 | 28 | 316 | 0.0 | 3.2 | 0.00 | 0.00 | 0.00 | 66 | 1015.4 |
| 20260905171332 | 28 | 317 | 0.0 | 4.8 | 0.00 | 0.00 | 0.00 | 66 | 1015.3 |
| 20260905170332 | 28 | 316 | 0.0 | 4.8 | 0.00 | 0.00 | 0.00 | 65 | 1015.2 |
| 20260905164331 | 28 | 315 | 0.0 | 4.8 | 0.00 | 0.00 | 0.00 | 64 | 1014.9 |
| 20260905163332 | 28 | 315 | 0.0 | 4.8 | 0.00 | 0.00 | 0.00 | 64 | 1014.8 |
| 20260905162332 | 28 | 317 | 0.0 | 4.8 | 0.00 | 0.00 | 0.00 | 64 | 1014.8 |
| 20260905160331 | 29 | 319 | 3.2 | 4.8 | 0.00 | 0.00 | 0.00 | 63 | 1014.7 |
| 20260905155331 | 29 | 318 | 1.6 | 8.0 | 0.00 | 0.00 | 0.00 | 62 | 1014.7 |
| 20260905154332 | 30 | 314 | 1.6 | 8.0 | 0.00 | 0.00 | 0.00 | 62 | 1014.7 |
| 20260905153331 | 30 | 324 | 1.6 | 8.0 | 0.00 | 0.00 | 0.00 | 62 | 1014.7 |
| 20260905152331 | 30 | 321 | 1.6 | 9.7 | 0.00 | 0.00 | 0.00 | 61 | 1014.7 |
| 20260905151331 | 30 | 324 | 3.2 | 11.3 | 0.00 | 0.00 | 0.00 | 61 | 1014.7 |
| 20260905150331 | 30 | 306 | 4.8 | 16.1 | 0.00 | 0.00 | 0.00 | 61 | 1014.7 |
| 20260905145332 | 30 | 308 | 6.4 | 14.5 | 0.00 | 0.00 | 0.00 | 60 | 1014.6 |
| 20260905144331 | 31 | 321 | 6.4 | 14.5 | 0.00 | 0.00 | 0.00 | 60 | 1014.5 |
| 20260905143331 | 31 | 320 | 8.0 | 16.1 | 0.00 | 0.00 | 0.00 | 59 | 1014.4 |
| 20260905142331 | 31 | 319 | 8.0 | 19.3 | 0.00 | 0.00 | 0.00 | 58 | 1014.3 |
| 20260905141332 | 31 | 330 | 8.0 | 14.5 | 0.00 | 0.00 | 0.00 | 58 | 1014.2 |
| 20260905140332 | 32 | 315 | 8.0 | 16.1 | 0.00 | 0.00 | 0.00 | 57 | 1014.3 |
| 20260905135331 | 32 | 317 | 8.0 | 19.3 | 0.00 | 0.00 | 0.00 | 57 | 1014.3 |
| 20260905134332 | 32 | 318 | 8.0 | 16.1 | 0.00 | 0.00 | 0.00 | 56 | 1014.4 |
| 20260905133331 | 32 | 297 | 4.8 | 16.1 | 0.00 | 0.00 | 0.00 | 56 | 1014.2 |
| 20260905132332 | 32 | 330 | 4.8 | 19.3 | 0.00 | 0.00 | 0.00 | 55 | 1014.1 |